{"data":{"norad_id":64773,"epoch":"2026-09-20T14:10:25.324032Z","epoch_age_seconds":119785,"freshness":"FRESH","line1":"1 64773U 25147U   26263.59057088  .00020463  00000+0  61515-3 0  9992","line2":"2 64773  53.1563  53.0782 0001402  81.9686 278.1476 15.34397122 68659","mean_motion":15.34397122,"eccentricity":0.0001402,"inclination_deg":53.1563,"raan_deg":53.0782,"arg_perigee_deg":81.9686,"mean_anomaly_deg":278.1476,"bstar":0.00061515,"rev_number":6865,"period_min":93.847934107374,"perigee_km":461.75270724203,"apogee_km":463.67088124394,"semimajor_km":6840.848794243,"source":"CELESTRAK","updated_at":"2026-09-21T09:00:35.439820Z"}}